Jackson, KY

6:25 AM EST on February 08, 2016 (GMT -0500)
Carroll

Weather History for KJKL - January, 2013

Change the Weather History Date:

Thursday, January 17, 2013

  Actual Average Record
Temperature  
Mean Temperature 31 °F 35 °F  
Max Temperature 34 °F 43 °F 62 °F (1990)
Min Temperature 28 °F 27 °F -15 °F (1982)
Degree Days  
Heating Degree Days 34 30  
Month to date heating degree days 422 510  
Since 1 July heating degree days 2030 2144  
Cooling Degree Days 0 0  
Month to date cooling degree days 0 0  
Year to date cooling degree days 0 0  
Moisture  
Dew Point 29 °F    
Average Humidity 88    
Maximum Humidity 100    
Minimum Humidity 75    
Precipitation  
Precipitation 0.00 in 0.11 in 1.23 in (1994)
Month to date precipitation 3.30 1.95  
Year to date precipitation 3.30 1.95  
Snow  
Snow 0.00 in 0.20 in 15.10 in (1994)
Month to date snowfall 0.2 3.7  
Since 1 July snowfall 3.1 9.2  
Snow Depth 0.00 in    
Sea Level Pressure  
Sea Level Pressure 30.16 in    
Wind  
Wind Speed 3 mph (North)    
Max Wind Speed 12 mph    
Max Gust Speed 20 mph    
Visibility 8 miles    
Events      
T = Trace of Precipitation, MM = Missing Value Source: NWS Daily Summary

Daily Weather History Graph

Daily Weather History Graph

Search for Another Location

Airport or City:

Trip Planner

Search our weather history database for the weather conditions in past years. The results will help you decide how hot, cold, wet, or windy it might be!

Date:

Astronomy

Jan. 17, 2013 Rise Set
Actual Time 7:46 AM EST 5:41 PM EST
Civil Twilight 7:17 AM EST 6:09 PM EST
Nautical Twilight 6:45 AM EST 6:41 PM EST
Astronomical Twilight 6:14 AM EST 7:13 PM EST
Moon 11:01 AM EST (1/17) No Moon Set
Length of Visible Light 10h 51m
Length of Day
9h 54m
Waxing Crescent, 37% of the Moon is Illuminated
Jan 17
Waxing Crescent
Jan 18
First Quarter
Jan 26
Full
Feb 3
Last Quarter
Feb 10
New

Hourly Weather History & Observations

Time (EST) Temp. Windchill Dew Point Humidity Pressure Visibility Wind Dir Wind Speed Gust Speed Precip Events Conditions
12:53 AM 34.0 °F 31.0 °F 33.1 °F 96% 30.12 in 7.0 mi Variable 3.5 mph - N/A   Overcast
1:32 AM 33.8 °F 30.8 °F 32.0 °F 93% 30.11 in 9.0 mi SSW 3.5 mph - N/A   Scattered Clouds
1:37 AM 33.8 °F - 33.8 °F 100% 30.12 in 1.5 mi Calm Calm - N/A   Mostly Cloudy
1:48 AM 33.8 °F - 33.8 °F 100% 30.12 in 4.0 mi Calm Calm - N/A   Mostly Cloudy
1:53 AM 34.0 °F 31.0 °F 32.0 °F 92% 30.14 in 8.0 mi West 3.5 mph - N/A   Mostly Cloudy
2:06 AM 33.8 °F - 33.8 °F 100% 30.12 in 6.0 mi Calm Calm - N/A   Overcast
2:51 AM 33.8 °F - 32.0 °F 93% 30.13 in 1.2 mi Calm Calm - N/A   Overcast
2:53 AM 34.0 °F - 32.0 °F 92% 30.16 in 1.0 mi Calm Calm - N/A   Overcast
3:02 AM 33.8 °F - 32.0 °F 93% 30.09 in 3.0 mi Calm Calm - N/A   Overcast
3:53 AM 34.0 °F - 30.9 °F 89% 30.13 in 10.0 mi Calm Calm - N/A   Overcast
4:53 AM 34.0 °F - 30.9 °F 89% 30.13 in 10.0 mi Calm Calm - N/A   Overcast
5:53 AM 33.1 °F - 28.9 °F 85% 30.12 in 10.0 mi Calm Calm - N/A   Overcast
6:53 AM 32.0 °F - 28.0 °F 85% 30.15 in 10.0 mi Calm Calm - N/A   Overcast
7:53 AM 32.0 °F - 28.0 °F 85% 30.16 in 10.0 mi Calm Calm - N/A   Clear
8:53 AM 32.0 °F 26.4 °F 28.0 °F 85% 30.13 in 10.0 mi Variable 5.8 mph - N/A   Clear
9:53 AM 33.1 °F 28.7 °F 28.0 °F 82% 30.15 in 10.0 mi NNE 4.6 mph - N/A   Clear
10:53 AM 33.1 °F 30.0 °F 28.0 °F 82% 30.14 in 10.0 mi Variable 3.5 mph - N/A   Mostly Cloudy
11:44 AM 33.8 °F 30.8 °F 26.6 °F 75% 30.10 in 10.0 mi Variable 3.5 mph - N/A   Mostly Cloudy
11:53 AM 33.1 °F 28.7 °F 27.0 °F 78% 30.14 in 10.0 mi NE 4.6 mph - N/A   Overcast
12:53 PM 32.0 °F 26.4 °F 28.0 °F 85% 30.09 in 9.0 mi Variable 5.8 mph - N/A   Overcast
1:53 PM 32.0 °F 25.6 °F 27.0 °F 82% 30.09 in 8.0 mi NE 6.9 mph - N/A   Overcast
2:17 PM 32.0 °F 28.7 °F 26.6 °F 80% 30.08 in 9.0 mi NNE 3.5 mph - N/A   Overcast
2:53 PM 32.0 °F 27.5 °F 27.0 °F 82% 30.07 in 8.0 mi NE 4.6 mph - N/A   Overcast
3:53 PM 32.0 °F - 28.0 °F 85% 30.13 in 8.0 mi Calm Calm - N/A   Mostly Cloudy
4:35 PM 32.0 °F 28.7 °F 26.6 °F 80% 30.11 in 8.0 mi NNE 3.5 mph - N/A   Mostly Cloudy
4:53 PM 32.0 °F - 28.0 °F 85% 30.17 in 8.0 mi Calm Calm - N/A   Overcast
5:23 PM 32.0 °F 28.7 °F 26.6 °F 80% 30.13 in 8.0 mi NE 3.5 mph - N/A   Scattered Clouds
5:34 PM 32.0 °F - 26.6 °F 80% 30.17 in 8.0 mi Calm Calm - N/A   Mostly Cloudy
5:53 PM 32.0 °F 27.5 °F 28.0 °F 85% 30.18 in 8.0 mi NNE 4.6 mph - N/A   Overcast
6:53 PM 32.0 °F 27.5 °F 28.0 °F 85% 30.22 in 9.0 mi Variable 4.6 mph - N/A   Overcast
7:53 PM 30.9 °F 25.2 °F 28.0 °F 89% 30.23 in 9.0 mi Variable 5.8 mph - N/A   Scattered Clouds
8:15 PM 30.2 °F - 28.4 °F 93% 30.22 in 9.0 mi Calm Calm - N/A   Mostly Cloudy
8:23 PM 30.2 °F - 26.6 °F 86% 30.22 in 9.0 mi Calm Calm - N/A   Scattered Clouds
8:53 PM 30.9 °F 26.2 °F 26.1 °F 82% 30.27 in 9.0 mi NW 4.6 mph - N/A   Clear
9:53 PM 28.9 °F 25.2 °F 26.1 °F 89% 30.31 in 6.0 mi WSW 3.5 mph - N/A   Clear
10:53 PM 28.9 °F 25.2 °F 26.1 °F 89% 30.34 in 7.0 mi West 3.5 mph - N/A   Clear
11:53 PM 28.0 °F 24.2 °F 25.0 °F 88% 30.35 in 5.0 mi WSW 3.5 mph - N/A   Clear